Location: Castillon
(43.0896°N, 0.2156°E)
Time: 18:55:56
(UTC+00:00)

SJ-6B - Pass Details

Date: 16 June 2021
Orbit: 508 x 581 km, 97.6° (Epoch: 23 July)

Event Time Altitude Azimuth Distance (km) Brightness Sun altitude
Rises 20:09:26 0° 180° (S) 2,786 6.0 -5.0°
Reaches altitude 10° 20:11:40 10° 187° (S) 1,889 5.2 -5.3°
Maximum altitude 20:15:37 46° 261° (W) 778 4.0 -5.9°
Drops below altitude 10° 20:19:33 10° 335° (NNW) 1,880 6.8 -6.5°
Sets 20:21:46 0° 342° (NNW) 2,772 7.6 -6.8°
